• In Belarus
  • List of Countries
  • For 7 days
  • Water Temperature
  • Satellite Maps
  • Weather Map
  • Weather Widgets
  • user-avatar
    Login

    Hourly Weather Andon

    Today, 18 January, Friday

    Time Temperature Precipitation Wind Pressure Humidity
    00:00 -3°C° 0 mm 1 mps 756 mmHg 48%
    01:00 -3°C° 0 mm 1 mps 756 mmHg 48%
    02:00 -3°C° 0 mm 1 mps 756 mmHg 49%
    03:00 -3°C° 0 mm 1 mps 756 mmHg 49%
    04:00 -3°C° 0 mm 1 mps 756 mmHg 49%
    05:00 -4°C° 0 mm 1 mps 756 mmHg 50%
    06:00 -4°C° 0 mm 1 mps 756 mmHg 50%
    07:00 -3°C° 0 mm 1 mps 757 mmHg 48%
    08:00 -2°C° 0 mm 1 mps 757 mmHg 46%
    09:00 -2°C° 0 mm 1 mps 757 mmHg 39%
    10:00 0°C° 0 mm 1 mps 757 mmHg 32%
    11:00 +2°C° 0 mm 1 mps 757 mmHg 26%
    12:00 +3°C° 0 mm 2 mps 757 mmHg 20%
    13:00 +4°C° 0 mm 2 mps 757 mmHg 21%
    14:00 +4°C° 0 mm 2 mps 756 mmHg 22%
    15:00 +4°C° 0 mm 3 mps 756 mmHg 23%
    16:00 +3°C° 0 mm 2 mps 756 mmHg 28%
    17:00 +2°C° 0 mm 2 mps 756 mmHg 33%
    18:00 +1°C° 0 mm 1 mps 756 mmHg 38%
    19:00 0°C° 0 mm 1 mps 756 mmHg 39%
    20:00 0°C° 0 mm 1 mps 756 mmHg 40%
    21:00 -1°C° 0 mm 0 mps 756 mmHg 41%
    22:00 -1°C° 0 mm 0 mps 756 mmHg 41%
    23:00 -1°C° 0 mm 0 mps 756 mmHg 41%

    Tomorrow, 19 January, Saturday

    Time Temperature Precipitation Wind Pressure Humidity
    00:00 -1°C° 0 mm 0 mps 756 mmHg 41%
    01:00 -1°C° 0 mm 0 mps 756 mmHg 42%
    02:00 -1°C° 0 mm 0 mps 756 mmHg 43%
    03:00 -1°C° 0 mm 0 mps 756 mmHg 44%
    04:00 -1°C° 0 mm 0 mps 755 mmHg 46%
    05:00 -1°C° 0 mm 0 mps 755 mmHg 48%
    06:00 -1°C° 0 mm 0 mps 755 mmHg 50%
    07:00 -1°C° 0 mm 0 mps 755 mmHg 49%
    08:00 0°C° 0 mm 0 mps 755 mmHg 49%
    09:00 0°C° 0 mm 0 mps 755 mmHg 48%
    10:00 +3°C° 0 mm 1 mps 755 mmHg 46%
    11:00 +5°C° 0 mm 1 mps 755 mmHg 44%
    12:00 +7°C° 0 mm 1 mps 755 mmHg 42%
    13:00 +8°C° 0 mm 1 mps 754 mmHg 43%
    14:00 +7°C° 0 mm 2 mps 753 mmHg 45%
    15:00 +7°C° 0 mm 2 mps 753 mmHg 46%
    16:00 +6°C° 0 mm 1 mps 753 mmHg 55%
    17:00 +4°C° 0 mm 1 mps 752 mmHg 64%
    18:00 +2°C° 0 mm 1 mps 752 mmHg 73%
    19:00 +2°C° 0 mm 1 mps 752 mmHg 76%
    20:00 0°C° 0 mm 0 mps 752 mmHg 79%
    21:00 0°C° 0 mm 0 mps 752 mmHg 81%
    22:00 0°C° 0 mm 0 mps 751 mmHg 82%
    23:00 0°C° 0 mm 0 mps 751 mmHg 83%

    Day after tomorrow, 20 January, Sunday

    Time Temperature Precipitation Wind Pressure Humidity
    00:00 0°C° 0 mm 0 mps 751 mmHg 83%
    01:00 +1°C° 0 mm 1 mps 750 mmHg 84%
    02:00 +1°C° 0 mm 1 mps 750 mmHg 85%
    03:00 +1°C° 0 mm 1 mps 750 mmHg 86%
    04:00 +1°C° 0 mm 1 mps 750 mmHg 88%
    05:00 -1°C° 0 mm 2 mps 750 mmHg 91%
    06:00 -1°C° 0 mm 2 mps 749 mmHg 93%
    07:00 -1°C° 0 mm 3 mps 750 mmHg 78%
    08:00 -2°C° 0 mm 4 mps 750 mmHg 62%
    09:00 -2°C° 0 mm 4 mps 751 mmHg 46%
    10:00 -2°C° 0 mm 5 mps 751 mmHg 39%
    11:00 -2°C° 0 mm 6 mps 751 mmHg 33%
    12:00 -1°C° 0 mm 7 mps 751 mmHg 26%
    13:00 -1°C° 0 mm 6 mps 751 mmHg 26%
    14:00 -1°C° 0 mm 6 mps 751 mmHg 25%
    15:00 -1°C° 0 mm 6 mps 751 mmHg 25%
    16:00 -2°C° 0 mm 5 mps 752 mmHg 29%
    17:00 -3°C° 0 mm 4 mps 752 mmHg 33%
    18:00 -5°C° 0 mm 3 mps 753 mmHg 36%
    19:00 -5°C° 0 mm 3 mps 753 mmHg 37%
    20:00 -6°C° 0 mm 3 mps 753 mmHg 38%
    21:00 -5°C° 0 mm 2 mps 754 mmHg 39%
    22:00 -6°C° 0 mm 2 mps 754 mmHg 39%
    23:00 -6°C° 0 mm 2 mps 754 mmHg 39%

    21 January, Monday

    Time Temperature Precipitation Wind Pressure Humidity
    00:00 -6°C° 0 mm 2 mps 754 mmHg 39%
    01:00 -6°C° 0 mm 2 mps 754 mmHg 39%
    02:00 -6°C° 0 mm 2 mps 754 mmHg 38%
    03:00 -6°C° 0 mm 2 mps 754 mmHg 38%
    04:00 -6°C° 0 mm 2 mps 754 mmHg 37%
    05:00 -4°C° 0 mm 1 mps 753 mmHg 37%
    06:00 -4°C° 0 mm 1 mps 753 mmHg 36%
    07:00 -4°C° 0 mm 1 mps 753 mmHg 34%
    08:00 -3°C° 0 mm 1 mps 754 mmHg 32%
    09:00 -3°C° 0 mm 1 mps 754 mmHg 30%
    10:00 -3°C° 0 mm 2 mps 753 mmHg 35%
    11:00 -1°C° 0 mm 3 mps 753 mmHg 40%
    12:00 0°C° 0 mm 4 mps 752 mmHg 45%
    13:00 +1°C° 0 mm 5 mps 752 mmHg 49%
    14:00 +1°C° 0 mm 5 mps 751 mmHg 53%
    15:00 +2°C° 0 mm 6 mps 750 mmHg 57%
    16:00 +1°C° 0 mm 5 mps 750 mmHg 62%
    17:00 0°C° 0 mm 4 mps 750 mmHg 67%
    18:00 -1°C° 0 mm 4 mps 749 mmHg 73%
    19:00 -2°C° 0 mm 4 mps 749 mmHg 74%
    20:00 -2°C° 0 mm 4 mps 749 mmHg 76%
    21:00 -1°C° 0 mm 3 mps 749 mmHg 78%
    22:00 -2°C° 0 mm 4 mps 749 mmHg 77%
    23:00 -2°C° 0 mm 4 mps 749 mmHg 76%

    22 January, Tuesday

    Time Temperature Precipitation Wind Pressure Humidity
    00:00 -2°C° 0 mm 4 mps 749 mmHg 75%
    01:00 -2°C° 0 mm 4 mps 749 mmHg 75%
    02:00 -1°C° 0 mm 3 mps 748 mmHg 75%
    03:00 -1°C° 0 mm 3 mps 748 mmHg 75%
    04:00 -1°C° 0 mm 3 mps 748 mmHg 78%
    05:00 -2°C° 0 mm 2 mps 748 mmHg 81%
    06:00 -3°C° 0 mm 2 mps 748 mmHg 85%
    07:00 -2°C° 0 mm 2 mps 748 mmHg 78%
    08:00 -2°C° 0 mm 2 mps 749 mmHg 71%
    09:00 -1°C° 0 mm 2 mps 749 mmHg 65%
    10:00 0°C° 0 mm 3 mps 749 mmHg 52%
    11:00 0°C° 0 mm 4 mps 750 mmHg 39%
    12:00 +3°C° 0 mm 4 mps 750 mmHg 26%
    13:00 +3°C° 0 mm 4 mps 749 mmHg 27%
    14:00 +3°C° 0 mm 4 mps 749 mmHg 27%
    15:00 +4°C° 0 mm 4 mps 749 mmHg 28%
    16:00 +1°C° 0 mm 4 mps 749 mmHg 33%
    17:00 0°C° 0 mm 3 mps 749 mmHg 39%
    18:00 -2°C° 0 mm 2 mps 749 mmHg 44%
    19:00 -2°C° 0 mm 2 mps 750 mmHg 47%
    20:00 -1°C° 0 mm 1 mps 750 mmHg 49%
    21:00 -2°C° 0 mm 1 mps 750 mmHg 51%
    22:00 -2°C° 0 mm 1 mps 750 mmHg 52%
    23:00 -2°C° 0 mm 1 mps 750 mmHg 52%

    23 January, Wednesday

    Time Temperature Precipitation Wind Pressure Humidity
    00:00 -2°C° 0 mm 1 mps 750 mmHg 53%
    01:00 -2°C° 0 mm 1 mps 750 mmHg 55%
    02:00 -2°C° 0 mm 1 mps 750 mmHg 56%
    03:00 -2°C° 0 mm 1 mps 750 mmHg 58%
    04:00 -2°C° 0 mm 1 mps 750 mmHg 59%
    05:00 -2°C° 0 mm 1 mps 750 mmHg 60%
    06:00 -2°C° 0 mm 1 mps 750 mmHg 61%
    07:00 -2°C° 0 mm 1 mps 751 mmHg 59%
    08:00 -1°C° 0 mm 1 mps 751 mmHg 57%
    09:00 0°C° 0 mm 1 mps 752 mmHg 54%
    10:00 +2°C° 0 mm 1 mps 752 mmHg 45%
    11:00 +2°C° 0 mm 2 mps 753 mmHg 36%
    12:00 +3°C° 0 mm 3 mps 753 mmHg 27%
    13:00 +3°C° 0 mm 3 mps 753 mmHg 26%
    14:00 +5°C° 0 mm 2 mps 753 mmHg 26%
    15:00 +5°C° 0 mm 2 mps 753 mmHg 25%
    16:00 +4°C° 0 mm 1 mps 753 mmHg 30%
    17:00 +2°C° 0 mm 1 mps 754 mmHg 36%
    18:00 -1°C° 0 mm 0 mps 754 mmHg 41%
    19:00 -1°C° 0 mm 0 mps 754 mmHg 43%
    20:00 -2°C° 0 mm 0 mps 755 mmHg 44%
    21:00 -2°C° 0 mm 0 mps 755 mmHg 46%
    22:00 -2°C° 0 mm 0 mps 755 mmHg 47%
    23:00 -2°C° 0 mm 0 mps 755 mmHg 48%
    Show more